TimeEDT,TemperatureF,Dew PointF,Humidity,Sea Level PressureIn,VisibilityMPH,Wind Direction,Wind SpeedMPH,Gust SpeedMPH,PrecipitationIn,Events,Conditions,WindDirDegrees,DateUTC
12:53 AM,64.0,63.0,96,30.00,10.0,NE,8.1,-,N/A,,Mostly Cloudy,40,2014-08-22 04:53:00
1:53 AM,62.1,62.1,100,30.00,10.0,ENE,4.6,-,N/A,,Partly Cloudy,60,2014-08-22 05:53:00
2:53 AM,63.0,62.1,97,29.99,10.0,ENE,5.8,-,N/A,,Overcast,70,2014-08-22 06:53:00
3:53 AM,62.1,62.1,100,30.00,10.0,NE,4.6,-,N/A,,Scattered Clouds,50,2014-08-22 07:53:00
4:53 AM,62.6,62.6,100,30.00,10.0,NE,3.5,-,N/A,,Scattered Clouds,40,2014-08-22 08:53:00
5:23 AM,63.0,62.1,97,30.01,10.0,NE,3.5,-,N/A,,Mostly Cloudy,40,2014-08-22 09:23:00
5:53 AM,63.0,62.1,97,30.01,10.0,NE,5.8,-,N/A,,Overcast,50,2014-08-22 09:53:00
6:53 AM,63.0,63.0,100,30.02,10.0,ENE,5.8,-,N/A,,Overcast,70,2014-08-22 10:53:00
7:02 AM,64.4,62.6,94,30.02,10.0,ENE,5.8,-,N/A,,Overcast,60,2014-08-22 11:02:00
7:13 AM,64.0,63.0,96,30.02,10.0,ENE,6.9,-,N/A,,Overcast,60,2014-08-22 11:13:00
7:40 AM,64.0,63.0,96,30.03,10.0,NE,5.8,-,N/A,,Overcast,50,2014-08-22 11:40:00
7:53 AM,64.0,63.0,96,30.03,10.0,NE,6.9,-,N/A,,Overcast,40,2014-08-22 11:53:00
8:13 AM,64.0,63.0,96,30.03,10.0,ENE,8.1,-,N/A,,Overcast,60,2014-08-22 12:13:00
8:27 AM,64.0,63.0,96,30.03,10.0,NE,6.9,-,N/A,,Overcast,40,2014-08-22 12:27:00
8:37 AM,64.0,63.0,96,30.04,10.0,NE,8.1,-,N/A,,Overcast,40,2014-08-22 12:37:00
8:53 AM,64.0,63.0,96,30.04,10.0,NE,8.1,-,N/A,,Overcast,40,2014-08-22 12:53:00
9:13 AM,64.0,63.0,96,30.04,10.0,NE,6.9,-,N/A,,Overcast,50,2014-08-22 13:13:00
9:53 AM,64.9,63.0,93,30.05,10.0,NE,6.9,-,N/A,,Overcast,50,2014-08-22 13:53:00
10:26 AM,66.0,64.0,93,30.05,10.0,NE,6.9,-,N/A,,Overcast,50,2014-08-22 14:26:00
10:45 AM,68.0,64.0,87,30.05,10.0,NNE,8.1,-,N/A,,Overcast,30,2014-08-22 14:45:00
10:53 AM,68.0,64.4,88,30.05,10.0,ENE,8.1,-,N/A,,Overcast,70,2014-08-22 14:53:00
11:53 AM,70.0,64.9,84,30.05,10.0,ENE,8.1,-,N/A,,Overcast,60,2014-08-22 15:53:00
12:27 PM,72.0,64.9,78,30.04,10.0,NE,9.2,-,N/A,,Overcast,50,2014-08-22 16:27:00
12:40 PM,72.0,66.0,81,30.04,10.0,ENE,9.2,-,N/A,,Overcast,70,2014-08-22 16:40:00
12:53 PM,72.0,64.9,78,30.05,10.0,ENE,9.2,-,N/A,,Overcast,60,2014-08-22 16:53:00
1:53 PM,72.0,64.9,78,30.04,10.0,NE,12.7,-,N/A,,Overcast,40,2014-08-22 17:53:00
2:17 PM,73.9,64.9,73,30.04,10.0,NE,12.7,-,N/A,,Overcast,50,2014-08-22 18:17:00
2:53 PM,73.9,64.9,73,30.03,10.0,NE,15.0,-,N/A,,Mostly Cloudy,50,2014-08-22 18:53:00
3:53 PM,75.9,64.9,69,30.03,10.0,NE,12.7,-,N/A,,Clear,50,2014-08-22 19:53:00
4:53 PM,73.4,64.4,73,30.03,10.0,NE,17.3,-,N/A,,Clear,40,2014-08-22 20:53:00
5:53 PM,72.0,62.1,71,30.04,10.0,NE,17.3,23.0,N/A,,Clear,40,2014-08-22 21:53:00
6:53 PM,70.0,62.1,76,30.04,10.0,NE,10.4,-,N/A,,Mostly Cloudy,50,2014-08-22 22:53:00
7:53 PM,66.9,62.1,84,30.05,10.0,NE,9.2,-,N/A,,Overcast,40,2014-08-22 23:53:00
8:30 PM,66.9,62.1,84,30.06,10.0,ENE,5.8,-,N/A,,Overcast,70,2014-08-23 00:30:00
8:53 PM,66.9,62.1,84,30.06,10.0,ENE,6.9,-,N/A,,Overcast,60,2014-08-23 00:53:00
9:02 PM,66.9,62.1,84,30.06,10.0,ENE,6.9,-,N/A,,Overcast,70,2014-08-23 01:02:00
9:53 PM,66.0,63.0,90,30.07,10.0,ENE,4.6,-,N/A,,Overcast,70,2014-08-23 01:53:00
10:53 PM,64.9,62.1,90,30.08,10.0,NE,4.6,-,N/A,,Overcast,50,2014-08-23 02:53:00
11:53 PM,64.9,61.0,87,30.10,10.0,ENE,3.5,-,N/A,,Overcast,70,2014-08-23 03:53:00